Cherokee, IA

12:50 AM CST on February 24, 2018 (GMT -0600)
Cherokee Municipal

Weather History for KCKP - January, 2014

Change the Weather History Date:

Saturday, January 18, 2014

  Actual Average Record
Temperature  
Mean Temperature 24 °F -  
Max Temperature 36 °F 25 °F 51 °F (1951)
Min Temperature 12 °F 6 °F -31 °F (1967)
Degree Days  
Heating Degree Days 41    
Moisture  
Dew Point 20 °F    
Average Humidity 82    
Maximum Humidity 96    
Minimum Humidity 57    
Precipitation  
Precipitation 0.00 in - - ()
Sea Level Pressure  
Sea Level Pressure 29.77 in    
Wind  
Wind Speed 14 mph (WNW)    
Max Wind Speed 30 mph    
Max Gust Speed 44 mph    
Visibility 9 miles    
Events Rain , Snow    
Averages and records for this station are not official NWS values.
T = Trace of Precipitation, MM = Missing Value Source: NWS Daily Summary

Daily Weather History Graph

Daily Weather History Graph

Search for Another Location

Airport or City:

Trip Planner

Search our weather history database for the weather conditions in past years. The results will help you decide how hot, cold, wet, or windy it might be!

Date:

Astronomy

Jan. 18, 2014 Rise Set
Actual Time 7:48 AM CST 5:17 PM CST
Civil Twilight 7:17 AM CST 5:48 PM CST
Nautical Twilight 6:42 AM CST 6:23 PM CST
Astronomical Twilight 6:08 AM CST 6:57 PM CST
Moon 8:05 PM CST (1/18) 8:44 AM CST (1/18)
Length of Visible Light 10h 31m
Length of Day
9h 29m
Waning Gibbous, 94% of the Moon is Illuminated
Jan 18
Waning Gibbous
Jan 23
Last Quarter
Jan 30
New
Feb 6
First Quarter
Feb 14
Full

Hourly Weather History & Observations

Time (CST) Temp. Windchill Dew Point Humidity Pressure Visibility Wind Dir Wind Speed Gust Speed Precip Events Conditions
12:15 AM 25.2 °F 13.3 °F 12.0 °F 58% 29.71 in 10.0 mi South 13.8 mph - N/A   Overcast
12:35 AM 26.1 °F 14.5 °F 12.7 °F 57% 29.68 in 10.0 mi South 13.8 mph 20.7 mph N/A   Overcast
12:55 AM 26.2 °F 14.7 °F 13.1 °F 58% 29.65 in 10.0 mi South 13.8 mph - N/A   Overcast
1:15 AM 26.6 °F 14.3 °F 13.8 °F 59% 29.62 in 10.0 mi South 16.1 mph 21.9 mph N/A   Overcast
1:35 AM 27.5 °F 15.9 °F 14.2 °F 57% 29.62 in 10.0 mi SSW 15.0 mph - N/A   Overcast
1:55 AM 27.5 °F 16.3 °F 15.1 °F 60% 29.60 in 10.0 mi SSW 13.8 mph - N/A   Overcast
2:15 AM 27.9 °F 16.8 °F 15.4 °F 60% 29.58 in 10.0 mi SSW 13.8 mph 17.3 mph N/A   Mostly Cloudy
2:35 AM 28.4 °F 18.0 °F 16.0 °F 60% 29.57 in 10.0 mi SSW 12.7 mph 23.0 mph N/A   Scattered Clouds
2:55 AM 29.7 °F 18.6 °F 17.6 °F 61% 29.57 in 10.0 mi SW 15.0 mph - N/A   Mostly Cloudy
3:15 AM 31.1 °F 21.4 °F 18.9 °F 61% 29.57 in 10.0 mi WSW 12.7 mph 20.7 mph N/A   Mostly Cloudy
3:35 AM 31.1 °F 20.9 °F 20.3 °F 64% 29.56 in 10.0 mi WSW 13.8 mph - N/A   Overcast
3:55 AM 31.6 °F 22.1 °F 21.4 °F 66% 29.55 in 10.0 mi WSW 12.7 mph - N/A   Overcast
4:15 AM 32.0 °F 23.0 °F 22.8 °F 69% 29.54 in 10.0 mi West 11.5 mph 17.3 mph N/A   Overcast
4:35 AM 32.0 °F 23.6 °F 24.8 °F 75% 29.54 in 7.0 mi West 10.4 mph 17.3 mph N/A Snow Light Snow
4:55 AM 34.3 °F 25.9 °F 30.2 °F 85% 29.52 in 7.0 mi West 11.5 mph - N/A Snow Light Snow
5:15 AM 35.6 °F 26.6 °F 30.7 °F 82% 29.52 in 10.0 mi WNW 13.8 mph 21.9 mph N/A   Overcast
5:35 AM 36.0 °F 26.7 °F 30.7 °F 81% 29.53 in 10.0 mi WNW 15.0 mph 19.6 mph N/A   Overcast
5:55 AM 34.9 °F 25.3 °F 32.0 °F 89% 29.53 in 10.0 mi WNW 15.0 mph 21.9 mph N/A   Overcast
6:15 AM 35.2 °F 25.4 °F 32.0 °F 88% 29.52 in 10.0 mi WNW 16.1 mph 25.3 mph N/A   Overcast
6:35 AM 35.2 °F 24.4 °F 32.0 °F 88% 29.52 in 7.0 mi WNW 19.6 mph 28.8 mph N/A   Drizzle
6:55 AM 35.6 °F 24.8 °F 32.0 °F 87% 29.52 in 10.0 mi WNW 19.6 mph 28.8 mph N/A   Overcast
7:15 AM 36.0 °F 25.6 °F 32.0 °F 86% 29.52 in 10.0 mi WNW 18.4 mph 27.6 mph N/A   Overcast
7:30 AM 36.0 °F 25.6 °F 32.0 °F 86% 29.52 in 10.0 mi WNW 18.4 mph 26.5 mph N/A   Overcast
7:55 AM 35.2 °F 25.0 °F 32.0 °F 88% 29.52 in 5.0 mi WNW 17.3 mph 28.8 mph N/A Rain Light Rain
8:15 AM 35.2 °F 25.4 °F 32.2 °F 89% 29.52 in 10.0 mi WNW 16.1 mph 25.3 mph N/A Rain Light Rain
8:35 AM 34.5 °F 25.7 °F 32.4 °F 92% 29.53 in 3.0 mi WNW 12.7 mph 20.7 mph N/A Snow Snow
8:55 AM 32.9 °F 20.7 °F 31.5 °F 94% 29.54 in 5.0 mi NW 21.9 mph 34.5 mph N/A Snow Light Snow
9:15 AM 32.0 °F 19.2 °F 27.7 °F 84% 29.57 in 10.0 mi NNW 23.0 mph 39.1 mph N/A   Overcast
9:35 AM 30.6 °F 16.7 °F 26.6 °F 85% 29.59 in 5.0 mi NNW 25.3 mph 39.1 mph N/A Snow Light Snow
9:55 AM 29.8 °F 16.3 °F 25.7 °F 85% 29.61 in 5.0 mi NNW 23.0 mph 40.3 mph N/A Snow Light Snow
10:15 AM 29.3 °F 15.9 °F 25.7 °F 86% 29.63 in 5.0 mi NNW 21.9 mph 34.5 mph N/A Snow Light Snow
10:35 AM 28.8 °F 14.3 °F 24.4 °F 84% 29.65 in 7.0 mi NNW 25.3 mph 34.5 mph N/A   Overcast
10:55 AM 27.1 °F 12.1 °F 23.2 °F 85% 29.68 in 5.0 mi NNW 25.3 mph 35.7 mph N/A   Overcast
11:15 AM 26.1 °F 10.1 °F 22.5 °F 86% 29.70 in 7.0 mi NNW 27.6 mph 43.7 mph N/A   Overcast
11:35 AM 24.8 °F 7.9 °F 21.2 °F 86% 29.72 in 7.0 mi NNW 29.9 mph 36.8 mph N/A   Overcast
11:55 AM 23.2 °F 6.8 °F 18.9 °F 84% 29.74 in 7.0 mi NNW 25.3 mph 33.4 mph N/A   Overcast
12:15 PM 22.1 °F 6.0 °F 18.7 °F 87% 29.76 in 2.5 mi North 23.0 mph 35.7 mph N/A   Overcast
12:35 PM 21.7 °F 6.3 °F 17.2 °F 83% 29.78 in 10.0 mi North 20.7 mph 36.8 mph N/A   Overcast
12:55 PM 20.7 °F 4.5 °F 15.8 °F 81% 29.81 in 10.0 mi NNW 21.9 mph 40.3 mph N/A   Overcast
1:15 PM 20.8 °F 3.4 °F 15.8 °F 81% 29.84 in 10.0 mi NNW 26.5 mph 34.5 mph N/A   Overcast
1:35 PM 20.5 °F 5.5 °F 15.1 °F 80% 29.86 in 10.0 mi North 18.4 mph 36.8 mph N/A   Overcast
1:55 PM 20.3 °F 4.8 °F 15.4 °F 81% 29.88 in 7.0 mi North 19.6 mph 25.3 mph N/A   Overcast
2:15 PM 20.7 °F 5.7 °F 15.6 °F 81% 29.90 in 10.0 mi NNW 18.4 mph 28.8 mph N/A   Overcast
2:35 PM 21.2 °F 7.3 °F 16.7 °F 83% 29.92 in 7.0 mi North 16.1 mph 25.3 mph N/A   Overcast
2:55 PM 21.9 °F 9.2 °F 16.7 °F 80% 29.92 in 10.0 mi North 13.8 mph 24.2 mph N/A   Mostly Cloudy
3:15 PM 21.7 °F 9.6 °F 16.0 °F 78% 29.95 in 10.0 mi NNW 12.7 mph 23.0 mph N/A   Mostly Cloudy
3:35 PM 21.7 °F 10.2 °F 16.2 °F 79% 29.97 in 10.0 mi NNW 11.5 mph 21.9 mph N/A   Mostly Cloudy
3:55 PM 21.6 °F 7.8 °F 16.2 °F 80% 29.99 in 10.0 mi NNW 16.1 mph 23.0 mph N/A   Mostly Cloudy
4:15 PM 21.6 °F 7.8 °F 16.5 °F 81% 30.00 in 10.0 mi NNW 16.1 mph 21.9 mph N/A   Overcast
4:35 PM 21.6 °F 8.2 °F 16.5 °F 81% 30.01 in 10.0 mi NNW 15.0 mph 20.7 mph N/A   Overcast
4:55 PM 21.2 °F 10.9 °F 16.2 °F 81% 30.01 in 10.0 mi North 9.2 mph 18.4 mph N/A   Mostly Cloudy
5:15 PM 20.3 °F 9.8 °F 15.6 °F 82% 30.02 in 10.0 mi NNW 9.2 mph - N/A   Scattered Clouds
5:35 PM 19.6 °F 8.1 °F 15.4 °F 84% 30.03 in 10.0 mi North 10.4 mph - N/A   Clear
5:55 PM 19.2 °F 11.3 °F 15.3 °F 85% 30.03 in 10.0 mi North 5.8 mph - N/A   Clear
6:15 PM 18.3 °F 13.1 °F 14.9 °F 86% 30.03 in 10.0 mi NNW 3.5 mph - N/A   Clear
6:35 PM 18.1 °F 11.3 °F 14.7 °F 86% 30.01 in 10.0 mi NNE 4.6 mph - N/A   Clear
6:55 PM 17.2 °F 11.9 °F 14.2 °F 88% 30.03 in 10.0 mi WSW 3.5 mph - N/A   Clear
7:15 PM 15.1 °F - 12.9 °F 91% 30.02 in 10.0 mi Calm Calm - N/A   Clear
7:35 PM 12.9 °F 6.9 °F 11.1 °F 93% 30.02 in 10.0 mi WSW 3.5 mph - N/A   Clear
7:55 PM 14.4 °F 8.6 °F 12.6 °F 93% 30.02 in 10.0 mi SSW 3.5 mph - N/A   Clear
8:15 PM 13.6 °F 7.7 °F 12.4 °F 95% 30.01 in 10.0 mi SSW 3.5 mph - N/A   Clear
8:35 PM 13.5 °F 5.8 °F 11.5 °F 92% 30.02 in 10.0 mi West 4.6 mph - N/A   Clear
8:55 PM 13.8 °F - 12.4 °F 94% 30.00 in 10.0 mi Calm Calm - N/A   Clear
9:15 PM 13.5 °F 5.8 °F 11.3 °F 91% 30.00 in 10.0 mi SSW 4.6 mph - N/A   Clear
9:35 PM 14.9 °F 6.1 °F 13.5 °F 94% 29.99 in 10.0 mi SSW 5.8 mph - N/A   Clear
9:55 PM 15.1 °F 7.7 °F 13.8 °F 95% 29.99 in 10.0 mi SSW 4.6 mph - N/A   Clear
10:15 PM 15.6 °F 8.3 °F 14.4 °F 95% 29.97 in 10.0 mi SSW 4.6 mph - N/A   Clear
10:35 PM 15.8 °F 8.6 °F 14.7 °F 95% 29.97 in 10.0 mi SSW 4.6 mph - N/A   Clear
10:55 PM 16.5 °F 6.0 °F 15.4 °F 96% 29.96 in 10.0 mi SSW 8.1 mph - N/A   Clear
11:15 PM 16.7 °F 6.2 °F 15.6 °F 96% 29.96 in 10.0 mi SSW 8.1 mph - N/A   Clear
11:35 PM 18.1 °F 7.1 °F 16.7 °F 94% 29.96 in 10.0 mi SW 9.2 mph - N/A   Clear
11:55 PM 18.3 °F 5.2 °F 16.9 °F 94% 29.90 in 10.0 mi SSW 12.7 mph - N/A   Clear